GW1008 Weather Reports


Display with metric or nautical units.
time (UTC)temp
F
wind
direction
speed
MPH
gust
MPH
rain 1hr
in
rain 24hr
in
rain mn
in
humidity
%
barometer
mb
20260509205008 40 0 0.0 0.0 0.00 0.03 0.00 75 1025.4
20260509204534 40 0 0.0 0.0 0.00 0.03 0.00 73 1025.4
20260509204017 41 0 0.0 0.0 0.00 0.03 0.00 73 1025.3
20260509203511 41 0 0.0 0.0 0.00 0.03 0.00 72 1025.3
20260509203035 41 0 0.0 0.0 0.00 0.03 0.00 71 1025.3
20260509202512 42 0 0.0 0.0 0.00 0.03 0.00 70 1025.3
20260509202013 42 0 0.0 0.0 0.00 0.03 0.00 70 1025.2
20260509201529 43 0 0.0 0.0 0.00 0.03 0.00 69 1025.1
20260509201014 43 0 0.0 0.0 0.00 0.03 0.00 69 1025.0
20260509200517 43 0 0.0 0.0 0.00 0.03 0.00 68 1025.1
20260509200029 44 0 0.0 0.0 0.00 0.03 0.00 67 1025.1
20260509195511 44 0 0.0 0.0 0.00 0.04 0.00 66 1025.1
20260509195015 45 0 0.0 0.0 0.00 0.04 0.00 64 1025.0
20260509194530 45 0 0.0 0.0 0.00 0.04 0.00 64 1025.0
20260509194013 45 0 0.0 0.0 0.00 0.04 0.00 62 1025.0
20260509193509 45 0 0.0 0.0 0.00 0.04 0.00 61 1025.1
20260509193029 46 0 0.0 0.0 0.00 0.04 0.00 60 1025.0
20260509192510 46 0 0.0 0.0 0.00 0.04 0.00 60 1025.0
20260509192012 47 0 0.0 0.0 0.00 0.04 0.00 59 1025.0
20260509191528 47 0 0.0 0.0 0.00 0.04 0.00 58 1024.9
20260509191015 48 0 0.0 1.0 0.00 0.04 0.00 56 1024.8
20260509190511 48 0 0.0 1.0 0.00 0.04 0.00 55 1024.7
20260509190034 49 0 0.0 2.0 0.00 0.04 0.00 55 1024.7
20260509185511 49 0 0.0 3.0 0.00 0.07 0.00 53 1024.7
20260509185011 49 0 0.0 3.0 0.00 0.07 0.00 54 1024.7
20260509184538 50 0 0.0 3.0 0.00 0.07 0.00 53 1024.6
20260509184012 50 0 0.0 4.0 0.00 0.07 0.00 53 1024.5
20260509183508 49 44 0.0 4.0 0.00 0.07 0.00 52 1024.5
20260509183033 49 0 0.0 6.0 0.00 0.07 0.00 52 1024.4
20260509182511 49 0 1.0 6.0 0.00 0.07 0.00 52 1024.5
20260509182013 49 0 0.0 4.0 0.00 0.07 0.00 52 1024.4
20260509181529 49 0 0.0 9.0 0.00 0.07 0.00 53 1024.4
20260509181008 49 0 0.0 9.0 0.00 0.07 0.00 52 1024.3
20260509180507 49 0 0.0 9.0 0.00 0.07 0.00 52 1024.3
20260509180029 49 0 0.0 4.0 0.00 0.07 0.00 54 1024.2
20260509175517 49 0 0.0 4.0 0.00 0.07 0.00 54 1024.2
20260509175011 50 0 0.0 4.0 0.00 0.07 0.00 52 1024.1
20260509174527 50 0 0.0 5.0 0.00 0.07 0.00 53 1024.1
20260509174011 50 0 0.0 5.0 0.00 0.07 0.00 52 1024.1
20260509173515 51 0 0.0 5.0 0.00 0.07 0.00 52 1024.0
20260509173031 51 0 0.0 8.0 0.00 0.07 0.00 51 1024.0
20260509172511 51 80 0.0 8.0 0.00 0.07 0.00 50 1024.0
20260509172009 51 0 1.0 7.0 0.00 0.07 0.00 50 1024.0
20260509171537 51 0 0.0 4.0 0.00 0.07 0.00 50 1024.0
20260509171015 51 0 0.0 3.0 0.00 0.07 0.00 50 1023.9
20260509170508 51 338 0.0 5.0 0.00 0.07 0.00 48 1023.9
20260509170031 50 0 0.0 5.0 0.00 0.07 0.00 51 1023.8
20260509165508 49 0 0.0 1.0 0.00 0.08 0.00 53 1023.9
20260509165008 49 0 0.0 4.0 0.00 0.08 0.00 52 1023.9
20260509164528 49 0 0.0 5.0 0.00 0.08 0.00 52 1023.9
20260509164011 49 0 0.0 5.0 0.00 0.08 0.00 54 1024.1
20260509163509 50 0 1.0 11.0 0.00 0.08 0.00 54 1024.1
20260509163051 50 76 2.0 11.0 0.00 0.08 0.00 52 1024.0
20260509162517 51 0 1.0 10.0 0.00 0.08 0.00 54 1024.0
20260509162010 51 322 0.0 10.0 0.00 0.08 0.00 52 1024.0
20260509161537 51 0 0.0 10.0 0.00 0.08 0.00 53 1024.0
20260509161014 51 79 1.0 10.0 0.00 0.08 0.00 53 1024.0
20260509160509 51 0 0.0 9.0 0.00 0.08 0.00 53 1023.9
20260509160028 52 0 2.0 9.0 0.00 0.08 0.00 55 1023.9
20260509155510 52 74 2.0 10.0 0.00 0.08 0.00 52 1023.9
20260509155009 51 344 1.0 10.0 0.00 0.08 0.00 52 1024.0
20260509154535 51 0 1.0 9.0 0.00 0.08 0.00 53 1024.0
20260509154010 51 360 1.0 9.0 0.00 0.08 0.00 52 1024.0
20260509153511 51 80 0.0 13.0 0.00 0.08 0.00 53 1024.0
20260509153029 51 36 2.0 13.0 0.00 0.08 0.00 52 1024.0
20260509152509 51 317 0.0 10.0 0.00 0.08 0.00 52 1023.9
20260509152013 52 0 0.0 10.0 0.00 0.08 0.00 50 1023.9
20260509151528 52 0 0.0 4.0 0.00 0.08 0.00 49 1023.9
20260509151008 53 69 0.0 6.0 0.00 0.08 0.00 50 1023.8
20260509150515 52 0 0.0 7.0 0.00 0.08 0.00 51 1023.8
20260509150029 52 31 0.0 7.0 0.00 0.08 0.00 52 1023.8
20260509145509 51 74 0.0 9.0 0.00 0.08 0.00 52 1023.8
20260509145013 51 0 1.0 9.0 0.00 0.08 0.00 50 1023.9
20260509144532 51 0 0.0 10.0 0.00 0.08 0.00 52 1023.9
20260509144009 51 341 0.0 14.0 0.00 0.08 0.00 51 1023.9
20260509143511 51 0 0.0 14.0 0.00 0.08 0.00 50 1023.9
20260509143034 51 339 1.0 12.0 0.00 0.08 0.00 52 1023.9
20260509142511 51 17 0.0 8.0 0.00 0.08 0.00 51 1023.9
20260509142011 52 0 1.0 8.0 0.00 0.08 0.00 51 1023.8
20260509141530 52 50 0.0 8.0 0.00 0.08 0.00 50 1023.8
20260509141011 53 82 0.0 8.0 0.00 0.08 0.00 49 1023.8
20260509140510 53 59 1.0 8.0 0.00 0.08 0.00 50 1023.9
20260509140028 53 318 0.0 7.0 0.00 0.08 0.00 50 1023.9
20260509135512 53 321 1.0 10.0 0.00 0.08 0.00 46 1023.9
20260509135011 52 0 3.0 10.0 0.00 0.08 0.00 47 1024.0
20260509134530 52 0 1.0 10.0 0.00 0.08 0.00 48 1024.0
20260509134012 52 17 1.0 10.0 0.00 0.08 0.00 50 1024.1
20260509133514 51 0 1.0 10.0 0.00 0.08 0.00 54 1024.1
20260509133028 51 0 0.0 10.0 0.00 0.08 0.00 54 1024.1
20260509132510 51 0 1.0 14.0 0.00 0.08 0.00 53 1024.0
20260509132011 52 334 2.0 14.0 0.00 0.08 0.00 52 1024.0
20260509131528 52 0 0.0 10.0 0.00 0.08 0.00 51 1023.9
20260509131014 52 0 0.0 9.0 0.00 0.08 0.00 51 1024.0
20260509130516 51 0 0.0 9.0 0.00 0.08 0.00 52 1024.1
20260509130029 52 352 1.0 9.0 0.00 0.08 0.00 52 1024.1
20260509125514 52 0 0.0 9.0 0.00 0.08 0.00 55 1024.1
20260509125007 51 9 2.0 9.0 0.00 0.08 0.00 55 1024.2
20260509124537 50 0 0.0 4.0 0.00 0.08 0.00 58 1024.2
20260509124008 49 0 0.0 9.0 0.00 0.08 0.00 56 1024.2
20260509123509 49 0 0.0 10.0 0.00 0.08 0.00 58 1024.1
20260509123027 49 17 2.0 10.0 0.00 0.08 0.00 57 1024.1
20260509122514 48 22 2.0 10.0 0.00 0.08 0.00 57 1024.2
20260509122014 48 0 0.0 8.0 0.00 0.08 0.00 59 1024.1
20260509121538 48 76 0.0 9.0 0.00 0.08 0.00 59 1024.2
20260509121007 48 0 0.0 9.0 0.00 0.08 0.00 63 1024.1
20260509120511 48 0 2.0 9.0 0.00 0.08 0.00 61 1024.2
20260509120027 49 0 0.0 9.0 0.00 0.08 0.00 62 1024.1
20260509115511 49 0 3.0 9.0 0.00 0.08 0.00 63 1024.1
20260509115009 49 61 0.0 7.0 0.00 0.08 0.00 65 1024.1
20260509114547 49 71 1.0 8.0 0.00 0.08 0.00 63 1024.2
20260509114010 49 0 3.0 9.0 0.00 0.08 0.00 63 1024.2
20260509113509 49 103 1.0 9.0 0.00 0.08 0.00 62 1024.3
20260509113026 49 0 1.0 10.0 0.00 0.08 0.00 58 1024.4
20260509112508 49 0 0.0 10.0 0.00 0.08 0.00 59 1024.4
20260509112009 49 306 1.0 9.0 0.00 0.08 0.00 60 1024.4
20260509111527 49 355 1.0 8.0 0.00 0.08 0.00 59 1024.2
20260509111010 49 0 0.0 4.0 0.00 0.08 0.00 58 1024.3
20260509110514 49 0 0.0 10.0 0.00 0.08 0.00 59 1024.3
20260509110028 49 0 0.0 10.0 0.00 0.08 0.00 59 1024.4
20260509105507 49 352 1.0 10.0 0.00 0.08 0.00 58 1024.4
20260509105009 49 0 0.0 10.0 0.00 0.08 0.00 58 1024.3
20260509104527 49 315 1.0 10.0 0.00 0.08 0.00 60 1024.3
20260509104010 49 0 0.0 12.0 0.00 0.08 0.00 59 1024.1
20260509103509 49 360 1.0 12.0 0.00 0.08 0.00 60 1024.1
20260509103026 49 351 1.0 12.0 0.00 0.08 0.00 58 1024.1
20260509102509 49 0 0.0 8.0 0.00 0.08 0.00 56 1023.8
20260509102008 49 351 1.0 8.0 0.00 0.08 0.00 56 1024.0
20260509101528 49 0 0.0 6.0 0.00 0.08 0.00 58 1024.0
20260509101008 48 0 0.0 4.0 0.00 0.08 0.00 59 1024.0
20260509100510 48 0 0.0 5.0 0.00 0.08 0.00 59 1024.0
20260509100028 48 321 0.0 8.0 0.00 0.08 0.00 57 1024.1
20260509095511 48 0 1.0 8.0 0.00 0.08 0.00 58 1024.1
20260509095007 49 9 0.0 6.0 0.00 0.08 0.00 62 1024.0
20260509094531 48 0 0.0 6.0 0.00 0.08 0.00 63 1024.0
20260509094008 48 0 0.0 8.0 0.00 0.08 0.00 63 1024.0
20260509093510 48 0 0.0 8.0 0.00 0.08 0.00 61 1023.9
20260509093028 48 345 1.0 8.0 0.00 0.08 0.00 59 1023.9
20260509092514 48 0 0.0 9.0 0.00 0.08 0.00 58 1023.8
20260509092012 49 0 1.0 9.0 0.00 0.08 0.00 60 1023.8
20260509091527 49 303 0.0 9.0 0.00 0.08 0.00 62 1023.8
20260509091007 48 0 0.0 6.0 0.00 0.08 0.00 61 1023.8
20260509090507 47 0 0.0 5.0 0.00 0.08 0.00 61 1023.9
20260509090050 47 0 0.0 4.0 0.00 0.08 0.00 65 1023.9
20260509085510 47 0 0.0 4.0 0.00 0.08 0.00 65 1023.8
20260509085010 47 0 0.0 4.0 0.00 0.08 0.00 65 1023.9
20260509084530 48 0 0.0 2.0 0.00 0.08 0.00 63 1023.8
20260509084010 48 0 0.0 6.0 0.00 0.08 0.00 62 1023.8
20260509083510 48 0 0.0 6.0 0.00 0.08 0.00 62 1023.8
20260509083043 47 0 0.0 6.0 0.00 0.08 0.00 64 1023.8
20260509082513 47 0 0.0 8.0 0.00 0.08 0.00 65 1023.8
20260509082016 46 0 0.0 8.0 0.00 0.08 0.00 66 1023.9
20260509081531 46 360 1.0 8.0 0.00 0.08 0.00 67 1023.9
20260509081014 45 0 0.0 8.0 0.00 0.08 0.00 67 1024.0
20260509080508 45 0 0.0 6.0 0.00 0.08 0.00 68 1024.0
20260509080033 45 0 0.0 3.0 0.00 0.08 0.00 70 1024.0
20260509075509 45 322 0.0 3.0 0.00 0.08 0.00 70 1023.9
20260509075011 45 0 0.0 3.0 0.00 0.08 0.00 70 1023.9
20260509074534 44 0 0.0 2.0 0.00 0.08 0.00 71 1024.0
20260509074012 44 0 0.0 2.0 0.00 0.08 0.00 71 1024.1
20260509073509 44 0 0.0 1.0 0.00 0.08 0.00 71 1024.3
20260509073027 44 0 0.0 5.0 0.00 0.08 0.00 71 1024.4
20260509072514 44 0 0.0 5.0 0.00 0.08 0.00 72 1024.3
20260509072009 44 0 0.0 3.0 0.00 0.08 0.00 74 1024.1
20260509071528 44 0 0.0 3.0 0.00 0.08 0.00 73 1024.1
20260509071009 44 351 0.0 3.0 0.00 0.08 0.00 73 1024.0
20260509070507 44 0 0.0 0.0 0.00 0.08 0.00 75 1024.0
20260509070033 44 0 0.0 1.0 0.00 0.08 0.00 76 1024.0
20260509065511 44 0 0.0 1.0 0.00 0.08 0.00 74 1023.9
20260509065009 44 0 0.0 5.0 0.00 0.08 0.00 76 1023.9
20260509064530 43 0 0.0 6.0 0.00 0.08 0.00 75 1023.9
20260509064012 43 350 0.0 6.0 0.00 0.08 0.00 76 1023.8
20260509063507 42 0 0.0 2.0 0.00 0.08 0.00 78 1023.8
20260509063029 42 0 0.0 2.0 0.00 0.08 0.00 78 1023.8
20260509062514 41 0 0.0 3.0 0.00 0.08 0.00 78 1023.8
20260509062011 41 0 0.0 4.0 0.00 0.08 0.00 78 1023.7
20260509061528 41 0 1.0 4.0 0.00 0.08 0.00 78 1023.6
20260509061014 41 0 0.0 2.0 0.00 0.08 0.00 79 1023.4
20260509060510 41 0 0.0 3.0 0.00 0.08 0.00 79 1023.6
20260509060028 41 0 0.0 3.0 0.00 0.08 0.00 80 1023.5
20260509055508 41 0 0.0 3.0 0.00 0.08 0.00 81 1023.6
20260509055009 41 0 0.0 0.0 0.00 0.08 0.00 81 1023.5
20260509054527 40 0 0.0 0.0 0.00 0.08 0.00 82 1023.5
20260509054012 40 0 0.0 0.0 0.00 0.08 0.00 82 1023.4
20260509053510 40 0 0.0 0.0 0.00 0.08 0.00 82 1023.4
20260509053040 40 0 0.0 0.0 0.00 0.08 0.00 82 1023.3
20260509052513 40 0 0.0 0.0 0.00 0.08 0.00 82 1023.2
20260509052010 40 0 0.0 0.0 0.00 0.08 0.00 82 1023.2
20260509051531 40 0 0.0 0.0 0.00 0.08 0.00 82 1023.1
20260509051011 40 0 0.0 0.0 0.00 0.08 0.00 83 1023.0
20260509050516 39 0 0.0 0.0 0.00 0.08 0.00 83 1023.0
20260509050046 39 0 0.0 0.0 0.00 0.08 0.00 83 1023.0
20260509045509 39 0 0.0 0.0 0.00 0.08 0.00 83 1023.1
20260509045011 39 0 0.0 0.0 0.00 0.08 0.00 83 1022.9
20260509044529 39 0 0.0 1.0 0.00 0.08 0.00 83 1022.9
20260509044013 39 0 0.0 1.0 0.00 0.08 0.00 83 1022.8
20260509043509 39 0 0.0 0.0 0.00 0.08 0.00 83 1022.9
20260509043036 39 0 0.0 0.0 0.00 0.08 0.00 83 1022.9
20260509042508 39 0 0.0 0.0 0.00 0.08 0.00 83 1023.0
20260509042014 39 0 0.0 0.0 0.00 0.08 0.00 83 1023.0
20260509041528 39 0 0.0 1.0 0.00 0.08 0.00 83 1022.9
20260509041012 39 0 0.0 1.0 0.00 0.08 0.00 83 1022.9
20260509040513 39 0 0.0 1.0 0.00 0.08 0.00 84 1022.9
20260509040030 39 0 0.0 1.0 0.00 0.08 0.00 84 1022.8
20260509035513 39 0 0.0 1.0 0.00 0.08 0.00 84 1022.8
20260509035013 39 0 0.0 0.0 0.00 0.08 0.00 84 1022.8
20260509034530 39 0 0.0 0.0 0.00 0.08 0.00 84 1022.8
20260509034008 39 0 0.0 0.0 0.00 0.08 0.00 84 1022.8
20260509033512 39 0 0.0 0.0 0.00 0.08 0.00 84 1022.8
20260509033036 39 0 0.0 0.0 0.00 0.08 0.00 84 1022.8
20260509032518 39 0 0.0 0.0 0.00 0.08 0.00 84 1022.8
20260509032012 39 0 0.0 0.0 0.00 0.08 0.00 84 1022.8
20260509031533 39 0 0.0 0.0 0.00 0.08 0.00 83 1022.8
20260509031011 40 0 0.0 0.0 0.00 0.08 0.00 83 1022.9
20260509030510 40 0 0.0 0.0 0.00 0.08 0.00 83 1022.9
20260509030029 40 0 0.0 0.0 0.00 0.08 0.00 84 1022.9
20260509025508 40 0 0.0 0.0 0.00 0.08 0.00 83 1022.7
20260509025010 40 0 0.0 0.0 0.00 0.08 0.00 83 1022.6
20260509024532 40 0 0.0 0.0 0.00 0.08 0.00 83 1022.6
20260509024014 40 0 0.0 0.0 0.00 0.08 0.00 83 1022.6
20260509023511 40 0 0.0 0.0 0.00 0.08 0.00 83 1022.6
20260509023028 40 0 0.0 0.0 0.00 0.08 0.00 83 1022.6
20260509022512 40 0 0.0 2.0 0.00 0.08 0.00 83 1022.5
20260509022009 40 0 0.0 2.0 0.00 0.08 0.00 83 1022.6
20260509021528 40 0 0.0 1.0 0.00 0.08 0.00 83 1022.6
20260509021008 41 0 0.0 1.0 0.00 0.08 0.00 83 1022.6
20260509020510 41 0 0.0 1.0 0.00 0.08 0.00 83 1022.7
20260509020026 41 0 0.0 0.0 0.00 0.08 0.00 83 1022.6
20260509015510 41 0 0.0 0.0 0.00 0.08 0.00 83 1022.6
20260509015015 41 0 0.0 0.0 0.00 0.08 0.00 83 1022.4
20260509014530 41 0 0.0 0.0 0.00 0.08 0.00 83 1022.5
20260509014009 41 0 0.0 0.0 0.00 0.08 0.00 83 1022.5
20260509013510 41 0 0.0 0.0 0.00 0.08 0.00 83 1022.4
20260509013030 41 0 0.0 1.0 0.00 0.08 0.00 83 1022.5
20260509012512 41 0 0.0 1.0 0.00 0.08 0.00 83 1022.4
20260509012010 41 0 0.0 0.0 0.00 0.08 0.00 83 1022.4
20260509011527 41 0 0.0 0.0 0.00 0.08 0.00 83 1022.4
20260509011010 41 0 0.0 0.0 0.00 0.08 0.00 83 1022.4
20260509010509 41 0 0.0 0.0 0.00 0.08 0.00 82 1022.4
20260509010033 41 0 0.0 0.0 0.00 0.08 0.00 82 1022.3
20260509005511 41 0 0.0 0.0 0.00 0.08 0.00 83 1022.3
20260509005010 41 0 0.0 0.0 0.00 0.08 0.00 83 1022.2
20260509004527 41 0 0.0 0.0 0.00 0.08 0.00 83 1022.1
20260509004011 42 0 0.0 0.0 0.00 0.08 0.00 83 1022.2
20260509003533 42 0 0.0 0.0 0.00 0.08 0.00 83 1022.1
20260509003028 42 0 0.0 0.0 0.00 0.08 0.00 83 1022.2
20260509002509 42 0 0.0 0.0 0.00 0.08 0.00 83 1022.1
20260509002015 42 0 0.0 0.0 0.00 0.08 0.00 83 1022.0
20260509001528 42 0 0.0 0.0 0.00 0.08 0.00 83 1022.0
20260509001011 42 0 0.0 0.0 0.00 0.08 0.00 83 1022.0
20260509000510 42 0 0.0 0.0 0.00 0.08 0.00 83 1022.0
20260509000039 42 0 0.0 0.0 0.00 0.08 0.00 83 1022.0
20260508235511 42 0 0.0 0.0 0.00 0.08 0.00 83 1021.9
20260508235009 42 0 0.0 0.0 0.00 0.08 0.00 83 1022.0
20260508234527 42 0 0.0 0.0 0.00 0.08 0.00 83 1022.0
20260508234010 42 0 0.0 0.0 0.00 0.08 0.00 84 1022.0
20260508233508 42 0 0.0 0.0 0.00 0.08 0.00 84 1021.9
20260508233030 43 0 0.0 0.0 0.00 0.08 0.00 83 1021.9
20260508232508 43 0 0.0 0.0 0.00 0.08 0.00 83 1021.8
20260508232010 43 0 0.0 1.0 0.00 0.08 0.00 83 1021.9
20260508231527 43 0 0.0 1.0 0.00 0.08 0.00 83 1021.8
20260508231014 43 0 0.0 1.0 0.00 0.08 0.00 83 1021.8
20260508230510 43 0 0.0 0.0 0.00 0.08 0.00 84 1021.7
20260508230029 43 0 0.0 0.0 0.00 0.08 0.00 84 1021.7
20260508225510 43 0 0.0 0.0 0.00 0.08 0.08 84 1021.7
20260508225011 43 0 0.0 0.0 0.00 0.08 0.08 84 1021.6
20260508224548 43 0 0.0 0.0 0.00 0.08 0.08 84 1021.6
20260508224007 43 0 0.0 0.0 0.00 0.08 0.08 84 1021.6
20260508223507 44 0 0.0 0.0 0.00 0.08 0.08 84 1021.6
20260508223028 44 0 0.0 0.0 0.00 0.08 0.08 85 1021.5
20260508222509 44 0 0.0 0.0 0.00 0.08 0.08 85 1021.5
20260508222009 44 0 0.0 0.0 0.00 0.08 0.08 84 1021.4
20260508221532 44 0 0.0 0.0 0.00 0.08 0.08 85 1021.3
20260508221010 44 0 0.0 0.0 0.00 0.08 0.08 86 1021.3
20260508220510 44 0 0.0 0.0 0.01 0.08 0.08 86 1021.1
20260508220034 45 0 0.0 0.0 0.01 0.08 0.08 86 1021.2
20260508215510 45 0 0.0 0.0 0.01 0.08 0.08 86 1021.1
20260508215013 45 0 0.0 0.0 0.01 0.08 0.08 86 1021.0
20260508214538 45 0 0.0 0.0 0.01 0.08 0.08 86 1021.0
20260508214009 45 0 0.0 0.0 0.02 0.08 0.08 86 1020.9
20260508213510 45 0 0.0 0.0 0.03 0.08 0.08 86 1020.8
20260508213032 45 0 0.0 0.0 0.03 0.08 0.08 86 1020.8
20260508212508 45 0 0.0 0.0 0.03 0.08 0.08 86 1020.8
20260508212011 45 0 0.0 0.0 0.03 0.08 0.08 86 1020.7
20260508211528 45 0 0.0 0.0 0.03 0.08 0.08 86 1020.7
20260508211011 45 0 0.0 0.0 0.03 0.08 0.08 86 1020.6
20260508210510 45 0 0.0 0.0 0.02 0.07 0.07 85 1020.5
20260508210031 45 0 0.0 0.0 0.02 0.07 0.07 85 1020.6
20260508205515 45 0 0.0 0.0 0.02 0.07 0.07 85 1020.6